Regional Weather Roundup
Issued by NWS

Home | Current Version | Previous Version | Text Only | Print | Product List | Glossary Off
Versions: 1 2 3 4 5 6 7 8 9 10 11 12 13 14 15 16 17 18 19 20 21 22 23 24 25 26 27 28 29 30 31 32 33 34 35 36 37 38 39 40 41 42 43 44 45 46 47 48 49 50

000
ASUS43 KIND 251559
RWRIN

WEATHER ROUNDUP FOR INDIANA
NATIONAL WEATHER SERVICE INDIANAPOLIS IN
1200 PM EDT WED MAY 25 2016

NOTE: "FAIR" INDICATES FEW OR NO CLOUDS BELOW 12,000 FEET WITH NO
SIGNIFICANT WEATHER AND/OR OBSTRUCTIONS TO VISIBILITY.

* - STATION DOES NOT REPORT WEATHER SUCH AS PRECIPITATION OR FOG.

+ - STATION NOT QUALITY CONTROLLED BY THE NATIONAL WEATHER SERVICE.
    USE DATA WITH CAUTION...ESPECIALLY DEWPOINT AND RELATIVE
    HUMIDITY OBSERVATIONS.

INZ001>003-010>013-019-020-251700-
NORTHWEST INDIANA

CITY           SKY/WX    TMP DP  RH WIND       PRES   REMARKS
GARY /AIRPORT/ PTSUNNY   81  68  65 SE6       30.01F
RENSSELAER +   SUNNY     79  59  50 S12       30.02F

$$

LMZ046-743>745-251700-
SOUTHERN LAKE MICHIGAN

STATION/POSITION TIME  TEMP    WIND        PRES    WAVE
                       AIR SEA DIR/SP/G            HT
                 (UTC) (F)     (DEG/KT/KT) (MB)    (FT)
BURNS HARBOR     1500   75     180/ 12/ 17 1016.9F
MICHIGAN CITY    1500   75     180/ 14/ 16   N/A
5NW MICH CITY    1500   67 59  230/  4/  6   N/A     0

$$

INZ004-005-014>016-021>024-251700-
NORTH CENTRAL INDIANA

CITY           SKY/WX    TMP DP  RH WIND       PRES   REMARKS
ELKHART        MOSUNNY   81  66  61 S14       30.05F
GOSHEN         SUNNY     80  59  48 S16       30.04F
SOUTH BEND     SUNNY     79  62  56 S13       30.03F

$$

INZ006>009-017-018-025>027-251700-
NORTHEAST INDIANA

CITY           SKY/WX    TMP DP  RH WIND       PRES   REMARKS
ANGOLA *+      SUNNY     81  61  50 S8        30.07F
FORT WAYNE     MOSUNNY   78  60  53 SW9       30.09S

$$

INZ028-029-035-036-043>045-051>053-251700-
WEST CENTRAL INDIANA

CITY           SKY/WX    TMP DP  RH WIND       PRES   REMARKS
CRAWFORDSVL +  SUNNY     77  61  56 SW15G21   30.06S
GREENCASTLE +  MOSUNNY   77  64  65 S9        30.07F
LAFAYETTE      SUNNY     78  60  53 S10       30.03F
TERRE HAUTE    PTSUNNY   79  63  57 SW10      30.06S

$$

INZ030>032-037>040-046>048-054>057-064-065-251700-
CENTRAL INDIANA

CITY           SKY/WX    TMP DP  RH WIND       PRES   REMARKS
ANDERSON       SUNNY     77  59  53 S12       30.09F
COLUMBUS       SUNNY     77  64  65 S10       30.09S
INDIANAPOLIS   PTSUNNY   78  62  57 S10       30.05F
-EAGLE CREEK   SUNNY     79  60  52 S9        30.06F
KOKOMO *+      SUNNY     79  61  53 S10       30.06F
SHELBYVILLE    SUNNY     81  59  47 S9        30.08F

$$

INZ033-034-041-042-049-050-058-059-251700-
EAST CENTRAL INDIANA

CITY           SKY/WX    TMP DP  RH WIND       PRES   REMARKS
MUNCIE         CLOUDY    79  58  48 S8        30.08F

$$

INZ060-061-067>069-081>083-085>088-251700-
SOUTHWEST INDIANA

CITY           SKY/WX    TMP DP  RH WIND       PRES   REMARKS
EVANSVILLE     CLOUDY    77  64  64 SW13      30.10R
HUNTINGBURG *+ PTSUNNY   79  63  57 SW10      30.10S

$$

INZ062-063-066-070>080-084-089>092-251700-
SOUTH CENTRAL AND SOUTHEAST INDIANA

CITY           SKY/WX    TMP DP  RH WIND       PRES   REMARKS
BLOOMINGTON    MOSUNNY   80  60  50 S10G16    30.08S
MADISON *+     CLOUDY    75  57  53 SE7       30.13S
SEYMOUR +      MOSUNNY   81  61  50 S6        30.08F

$$





USA.gov is the U.S. government's official web portal to all federal, state and local government web resources and services.